H1 CPF 2 NER 2025 9 4 9 247 01 glonass129 H2 1106402 9129 37868 2025 9 4 0 0 0 2025 9 7 23 45 0 900 1 1 0 0 0 1 H9 10 0 60922 0.00000 0 -9069116.707 20562112.147 12155664.494 10 0 60922 900.00000 0 -8712712.114 18939675.339 14772892.706 10 0 60922 1800.00000 0 -8459819.030 16992164.489 17104615.030 10 0 60922 2700.00000 0 -8353975.337 14765382.770 19105792.258 10 0 60922 3600.00000 0 -8429857.109 12314441.982 20737743.307 10 0 60922 4500.00000 0 -8711670.393 9701675.021 21968880.968 10 0 60922 5400.00000 0 -9211991.977 6994260.834 22775315.638 10 0 60922 6300.00000 0 -9931107.748 4261658.085 23141316.271 10 0 60922 7200.00000 0 -10856877.128 1572951.500 23059620.067 10 0 60922 8100.00000 0 -11965130.717 -1005781.495 22531584.761 10 0 60922 9000.00000 0 -13220586.581 -3413976.825 21567179.808 10 0 60922 9900.00000 0 -14578249.359 -5598860.110 20184815.298 10 0 60922 10800.00000 0 -15985236.328 -7517399.887 18411010.140 10 0 60922 11700.00000 0 -17382956.572 -9137856.885 16279903.761 10 0 60922 12600.00000 0 -18709554.138 -10440864.575 13832618.566 10 0 60922 13500.00000 0 -19902514.300 -11419995.181 11116483.298 10 0 60922 14400.00000 0 -20901324.237 -12081786.416 8184130.414 10 0 60922 15300.00000 0 -21650076.124 -12445226.626 5092483.601 10 0 60922 16200.00000 0 -22099902.017 -12540718.909 1901654.215 10 0 60922 17100.00000 0 -22211136.111 -12408567.138 -1326232.054 10 0 60922 18000.00000 0 -21955110.765 -12097047.540 -4528254.923 10 0 60922 18900.00000 0 -21315507.797 -11660147.757 -7641940.735 10 0 60922 19800.00000 0 -20289205.247 -11155070.139 -10606499.351 10 0 60922 20700.00000 0 -18886581.384 -10639606.614 -13364030.548 10 0 60922 21600.00000 0 -17131261.132 -10169498.441 -15860674.314 10 0 60922 22500.00000 0 -15059314.224 -9795894.993 -18047680.590 10 0 60922 23400.00000 0 -12717938.205 -9563021.484 -19882375.769 10 0 60922 24300.00000 0 -10163681.706 -9506156.411 -21329005.780 10 0 60922 25200.00000 0 -7460283.119 -9650005.853 -22359438.465 10 0 60922 26100.00000 0 -4676216.292 -10007544.359 -22953711.224 10 0 60922 27000.00000 0 -1882047.029 -10579371.719 -23100413.470 10 0 60922 27900.00000 0 852288.111 -11353612.497 -22796897.139 10 0 60922 28800.00000 0 3460166.415 -12306361.720 -22049312.141 10 0 60922 29700.00000 0 5880814.884 -13402656.683 -20872467.426 10 0 60922 30600.00000 0 8061592.154 -14597932.494 -19289521.785 10 0 60922 31500.00000 0 9959922.487 -15839898.473 -17331511.934 10 0 60922 32400.00000 0 11544803.115 -17070755.060 -15036728.528 10 0 60922 33300.00000 0 12797824.541 -18229656.774 -12449953.625 10 0 60922 34200.00000 0 13713664.116 -19255316.844 -9621575.588 10 0 60922 35100.00000 0 14300035.493 -20088643.655 -6606599.653 10 0 60922 36000.00000 0 14577099.285 -20675298.328 -3463574.055 10 0 60922 36900.00000 0 14576362.675 -20968066.488 -253453.016 10 0 60922 37800.00000 0 14339116.688 -20928945.563 2961581.230 10 0 60922 38700.00000 0 13914478.790 -20530861.126 6119314.814 10 0 60922 39600.00000 0 13357124.290 -19758941.530 9158694.371 10 0 60922 40500.00000 0 12724802.452 -18611298.540 12020992.813 10 0 60922 41400.00000 0 12075741.524 -17099282.141 14650927.443 10 0 60922 42300.00000 0 11466050.965 -15247199.260 16997710.229 10 0 60922 43200.00000 0 10947228.799 -13091507.986 19016011.623 10 0 60922 44100.00000 0 10563877.317 -10679520.055 20666820.970 10 0 60922 45000.00000 0 10351721.658 -8067664.195 21918188.450 10 0 60922 45900.00000 0 10336013.243 -5319380.527 22745835.576 10 0 60922 46800.00000 0 10530384.397 -2502730.995 23133623.389 10 0 60922 47700.00000 0 10936202.212 312177.649 23073869.739 10 0 60922 48600.00000 0 11542449.421 3055854.119 22567509.416 10 0 60922 49500.00000 0 12326138.762 5662058.327 21624093.273 10 0 60922 50400.00000 0 13253245.439 8070305.191 20261625.076 10 0 60922 51300.00000 0 14280120.970 10228134.091 18506237.447 10 0 60922 52200.00000 0 15355331.613 12093050.398 16391711.051 10 0 60922 53100.00000 0 16421846.488 13634058.315 13958844.105 10 0 60922 54000.00000 0 17419485.281 14832720.584 11254682.196 10 0 60922 54900.00000 0 18287523.739 15683699.763 8331621.427 10 0 60922 55800.00000 0 18967347.510 16194757.136 5246400.846 10 0 60922 56700.00000 0 19405041.857 16386208.046 2059002.840 10 0 60922 57600.00000 0 19553806.515 16289855.514 -1168517.334 10 0 60922 58500.00000 0 19376091.544 15947446.487 -4373249.559 10 0 60922 59400.00000 0 18845361.301 15408715.866 -7492669.607 10 0 60922 60300.00000 0 17947409.136 14729101.591 -10465876.803 10 0 60922 61200.00000 0 16681164.511 13967228.715 -13234802.488 10 0 60922 62100.00000 0 15058956.006 13182270.681 -15745363.620 10 0 60922 63000.00000 0 13106217.238 12431301.591 -17948536.996 10 0 60922 63900.00000 0 10860646.846 11766753.693 -19801331.296 10 0 60922 64800.00000 0 8370857.379 11234089.667 -21267636.666 10 0 60922 65700.00000 0 5694569.900 10869789.775 -22318934.351 10 0 60922 66600.00000 0 2896430.682 10699740.020 -22934852.204 10 0 60922 67500.00000 0 45542.285 10738089.790 -23103555.422 10 0 60922 68400.00000 0 -2787186.796 10986626.964 -22821965.545 10 0 60922 69300.00000 0 -5531762.411 11434695.951 -22095804.475 10 0 60922 70200.00000 0 -8121781.024 12059660.708 -20939463.972 10 0 60922 71100.00000 0 -10496950.551 12827891.538 -19375704.600 10 0 60922 72000.00000 0 -12605351.351 13696232.167 -17435191.536 10 0 60922 72900.00000 0 -14405344.582 14613883.497 -15155877.720 10 0 60922 73800.00000 0 -15867050.355 15524623.057 -12582247.730 10 0 60922 74700.00000 0 -16973336.563 16369265.407 -9764438.280 10 0 60922 75600.00000 0 -17720280.006 17088259.075 -6757253.442 10 0 60922 76500.00000 0 -18117083.634 17624310.378 -3619094.400 10 0 60922 77400.00000 0 -18185456.401 17924923.839 -410825.017 10 0 60922 78300.00000 0 -17958484.442 17944752.925 2805404.678 10 0 60922 79200.00000 0 -17479043.190 17647663.176 5967354.517 10 0 60922 80100.00000 0 -16797818.694 17008422.128 9013887.070 10 0 60922 81000.00000 0 -15971022.077 16013946.156 11886135.219 10 0 60922 81900.00000 0 -15057893.257 14664052.864 14528623.095 10 0 60922 82800.00000 0 -14118098.184 12971688.004 16890320.103 10 0 60922 83700.00000 0 -13209127.734 10962617.412 18925609.377 10 0 60922 84600.00000 0 -12383805.887 8674596.168 20595153.598 10 0 60922 85500.00000 0 -11688010.105 6156048.298 21866643.043 10 0 60923 0.00000 0 -11158697.951 3464310.281 22715412.711 10 0 60923 900.00000 0 -10822321.231 663507.450 23124917.955 10 0 60923 1800.00000 0 -10693694.111 -2177847.660 23087058.842 10 0 60923 2700.00000 0 -10775361.696 -4989443.017 22602348.396 10 0 60923 3600.00000 0 -11057496.969 -7701832.726 21679919.545 10 0 60923 4500.00000 0 -11518331.497 -10249073.741 20337369.848 10 0 60923 5400.00000 0 -12125103.716 -12571225.815 18600445.208 10 0 60923 6300.00000 0 -12835487.202 -14616611.937 16502566.539 10 0 60923 7200.00000 0 -13599441.056 -16343745.561 14084206.338 10 0 60923 8100.00000 0 -14361406.524 -17722843.980 11392125.031 10 0 60923 9000.00000 0 -15062758.738 -18736863.756 8478479.938 10 0 60923 9900.00000 0 -15644410.871 -19382013.527 5399822.671 10 0 60923 10800.00000 0 -16049460.621 -19667721.266 2216003.562 10 0 60923 11700.00000 0 -16225766.163 -19616055.986 -1010995.869 10 0 60923 12600.00000 0 -16128340.823 -19260627.217 -4218279.161 10 0 60923 13500.00000 0 -15721462.758 -18645008.162 -7343275.113 10 0 60923 14400.00000 0 -14980407.566 -17820749.244 -10324976.176 10 0 60923 15300.00000 0 -13892727.657 -16845066.758 -13105148.899 10 0 60923 16200.00000 0 -12459021.595 -15778305.746 -15629490.736 10 0 60923 17100.00000 0 -10693158.603 -14681286.152 -17848708.639 10 0 60923 18000.00000 0 -8621947.063 -13612646.480 -19719496.534 10 0 60923 18900.00000 0 -6284259.906 -12626299.203 -21205391.270 10 0 60923 19800.00000 0 -3729653.303 -11769107.074 -22277489.435 10 0 60923 20700.00000 0 -1016536.815 -11078879.654 -22915010.655 10 0 60923 21600.00000 0 1790027.653 -10582775.123 -23105696.601 10 0 60923 22500.00000 0 4620805.219 -10296174.606 -22846038.516 10 0 60923 23400.00000 0 7405041.206 -10222075.629 -22141329.852 10 0 60923 24300.00000 0 10073176.771 -10351028.763 -21005544.267 10 0 60923 25200.00000 0 12559513.500 -10661618.248 -19461042.791 10 0 60923 26100.00000 0 14804716.109 -11121464.141 -17538117.389 10 0 60923 27000.00000 0 16758049.843 -11688701.533 -15274381.281 10 0 60923 27900.00000 0 18379260.801 -12313872.397 -12714019.236 10 0 60923 28800.00000 0 19640022.790 -12942148.559 -9906913.681 10 0 60923 29700.00000 0 20524892.856 -13515790.734 -6907664.597 10 0 60923 30600.00000 0 21031738.387 -13976739.186 -3774522.954 10 0 60923 31500.00000 0 21171620.799 -14269226.531 -568258.933 10 0 60923 32400.00000 0 20968143.447 -14342302.850 2649013.039 10 0 60923 33300.00000 0 20456293.449 -14152167.428 5815029.839 10 0 60923 34200.00000 0 19680827.876 -13664209.908 8868573.161 10 0 60923 35100.00000 0 18694273.107 -12854676.091 11750638.808 10 0 60923 36000.00000 0 17554621.754 -11711889.336 14405560.355 10 0 60923 36900.00000 0 16322823.410 -10236976.986 16782066.899 10 0 60923 37800.00000 0 15060173.508 -8444071.567 18834256.110 10 0 60923 38700.00000 0 13825708.237 -6359977.893 20522465.469 10 0 60923 39600.00000 0 12673712.951 -4023318.902 21814026.407 10 0 60923 40500.00000 0 11651446.549 -1483194.032 22683888.202 10 0 60923 41400.00000 0 10797175.478 1202596.375 23115100.519 10 0 60923 42300.00000 0 10138598.407 3969689.588 23099145.774 10 0 60923 43200.00000 0 9691726.848 6749576.089 22636114.842 10 0 60923 44100.00000 0 9460268.569 9472194.958 21734722.005 10 0 60923 45000.00000 0 9435540.346 12068603.959 20412157.622 10 0 60923 45900.00000 0 9596914.928 14473615.604 18693779.611 10 0 60923 46800.00000 0 9912785.228 16628291.162 16612647.639 10 0 60923 47700.00000 0 10342007.069 18482189.519 14208906.781 10 0 60923 48600.00000 0 10835761.667 19995277.105 11529030.400 10 0 60923 49500.00000 0 11339760.867 21139418.396 8624934.934 10 0 60923 50400.00000 0 11796703.040 21899383.323 5552982.308 10 0 60923 51300.00000 0 12148876.079 22273327.771 2372888.390 10 0 60923 52200.00000 0 12340796.811 22272725.343 -853441.553 10 0 60923 53100.00000 0 12321773.654 21921751.819 -4063127.269 10 0 60923 54000.00000 0 12048281.910 21256147.263 -7193553.119 10 0 60923 54900.00000 0 11486048.450 20321603.352 -10183607.116 10 0 60923 55800.00000 0 10611754.662 19171744.284 -12974893.306 10 0 60923 56700.00000 0 9414282.727 17865787.441 -15512891.738 10 0 60923 57600.00000 0 7895449.966 16465984.045 -17748041.414 10 0 60923 58500.00000 0 6070198.117 15034949.678 -19636723.202 10 0 60923 59400.00000 0 3966228.096 13632999.209 -21142122.175 10 0 60923 60300.00000 0 1623094.759 12315600.274 -22234951.598 10 0 60923 61200.00000 0 -909200.473 11131054.021 -22894024.038 10 0 60923 62100.00000 0 -3572059.770 10118501.538 -23106658.600 10 0 60923 63000.00000 0 -6300503.665 9306339.946 -22868916.949 10 0 60923 63900.00000 0 -9025656.960 8711114.124 -22185664.504 10 0 60923 64800.00000 0 -11677401.131 8336929.267 -21070456.888 10 0 60923 65700.00000 0 -14187082.031 8175407.006 -19545255.287 10 0 60923 66600.00000 0 -16490159.767 8206184.542 -17639977.780 10 0 60923 67500.00000 0 -18528690.663 8397933.195 -15391896.843 10 0 60923 68400.00000 0 -20253538.801 8709850.913 -12844896.139 10 0 60923 69300.00000 0 -21626226.374 9093563.545 -10048602.282 10 0 60923 70200.00000 0 -22620347.685 9495352.819 -7057409.450 10 0 60923 71100.00000 0 -23222490.151 9858615.714 -3929416.556 10 0 60923 72000.00000 0 -23432626.401 10126450.715 -725298.102 10 0 60923 72900.00000 0 -23263963.693 10244261.677 2492869.220 10 0 60923 73800.00000 0 -22742259.358 10162269.867 5662801.636 10 0 60923 74700.00000 0 -21904632.897 9837829.027 8723202.441 10 0 60923 75600.00000 0 -20797925.914 9237446.968 11614932.990 10 0 60923 76500.00000 0 -19476679.285 8338429.616 14282139.065 10 0 60923 77400.00000 0 -18000812.275 7130079.294 16673312.288 10 0 60923 78300.00000 0 -16433100.056 5614397.352 18742267.691 10 0 60923 79200.00000 0 -14836553.849 3806261.609 20449020.263 10 0 60923 80100.00000 0 -13271811.559 1733070.405 21760545.131 10 0 60923 81000.00000 0 -11794646.027 -566133.382 22651408.050 10 0 60923 81900.00000 0 -10453693.083 -3042023.985 23104255.071 10 0 60923 82800.00000 0 -9288492.682 -5636786.013 23110152.414 10 0 60923 83700.00000 0 -8327923.751 -8286267.776 22668769.924 10 0 60923 84600.00000 0 -7589097.519 -10922408.258 21788403.935 10 0 60923 85500.00000 0 -7076755.685 -13475839.772 20485837.832 10 0 60924 0.00000 0 -6783199.280 -15878560.447 18786041.496 10 0 60924 900.00000 0 -6688752.273 -18066568.479 16721712.351 10 0 60924 1800.00000 0 -6762742.334 -19982346.403 14332667.054 10 0 60924 2700.00000 0 -6964958.636 -21577096.320 11665090.353 10 0 60924 3600.00000 0 -7247527.208 -22812628.979 8770655.884 10 0 60924 4500.00000 0 -7557125.621 -23662827.758 5705533.626 10 0 60924 5400.00000 0 -7837443.944 -24114624.314 2529302.451 10 0 60924 6300.00000 0 -8031787.620 -24168443.069 -696211.406 10 0 60924 7200.00000 0 -8085710.966 -23838093.993 -3908146.899 10 0 60924 8100.00000 0 -7949567.969 -23150116.767 -7043847.125 10 0 60924 9000.00000 0 -7580869.874 -22142602.949 -10042098.987 10 0 60924 9900.00000 0 -6946346.931 -20863545.569 -12844347.434 10 0 60924 10800.00000 0 -6023624.106 -19368786.133 -15395858.536 10 0 60924 11700.00000 0 -4802437.108 -17719646.672 -17646806.661 10 0 60924 12600.00000 0 -3285334.963 -15980348.178 -19553262.726 10 0 60924 13500.00000 0 -1487837.644 -14215325.957 -21078062.786 10 0 60924 14400.00000 0 561959.083 -12486556.699 -22191539.111 10 0 60924 15300.00000 0 2824315.547 -10851011.208 -22872099.019 10 0 60924 16200.00000 0 5249277.591 -9358340.881 -23106640.320 10 0 60924 17100.00000 0 7778543.147 -8048895.452 -22890795.834 10 0 60924 18000.00000 0 10347686.976 -6952154.843 -22229003.167 10 0 60924 18900.00000 0 12888649.701 -6085639.726 -21134399.673 10 0 60924 19800.00000 0 15332386.373 -5454344.661 -19628546.031 10 0 60924 20700.00000 0 17611563.482 -5050715.169 -17740985.362 10 0 60924 21600.00000 0 19663191.791 -4855166.926 -15508647.927 10 0 60924 22500.00000 0 21431085.586 -4837122.289 -12975114.397 10 0 60924 23400.00000 0 22868046.661 -4956517.796 -10189753.273 10 0 60924 24300.00000 0 23937683.394 -5165716.631 -7206750.242 10 0 60924 25200.00000 0 24615790.867 -5411743.518 -4084049.118 10 0 60924 26100.00000 0 24891236.593 -5638746.417 -882225.421 10 0 60924 27000.00000 0 24766317.194 -5790580.504 2336685.353 10 0 60924 27900.00000 0 24256573.371 -5813405.327 5510382.272 10 0 60924 28800.00000 0 23390072.903 -5658186.091 8577493.643 10 0 60924 29700.00000 0 22206193.203 -5282994.435 11478749.591 10 0 60924 30600.00000 0 20753955.278 -4655012.844 14158111.054 10 0 60924 31500.00000 0 19089978.980 -3752159.314 16563834.792 10 0 60924 32400.00000 0 17276144.557 -2564264.724 18649455.449 10 0 60924 33300.00000 0 15377057.066 -1093753.744 20374667.423 10 0 60924 34200.00000 0 13457417.847 644199.629 21706091.039 10 0 60924 35100.00000 0 11579410.818 2622049.490 22617909.678 10 0 60924 36000.00000 0 9800210.447 4800774.459 23092366.545 10 0 60924 36900.00000 0 8169713.399 7131258.126 23120112.033 10 0 60924 37800.00000 0 6728586.795 9556098.895 22700394.938 10 0 60924 38700.00000 0 5506713.334 12011776.989 21841093.218 10 0 60924 39600.00000 0 4522097.692 14431091.479 20558582.480 10 0 60924 40500.00000 0 3780279.964 16745768.702 18877443.051 10 0 60924 41400.00000 0 3274281.400 18889135.644 16830009.217 10 0 60924 42300.00000 0 2985085.810 20798748.364 14455767.139 10 0 60924 43200.00000 0 2882637.798 22418866.383 11800610.887 10 0 60924 44100.00000 0 2927317.201 23702669.415 8915969.007 10 0 60924 45000.00000 0 3071828.707 24614122.617 5857817.044 10 0 60924 45900.00000 0 3263427.550 25129410.519 2685594.226 10 0 60924 46800.00000 0 3446387.173 25237877.430 -538954.995 10 0 60924 47700.00000 0 3564603.704 24942432.648 -3752991.572 10 0 60924 48600.00000 0 3564225.451 24259401.501 -6893820.106 10 0 60924 49500.00000 0 3396193.879 23217826.991 -9900129.050 10 0 60924 50400.00000 0 3018585.828 21858250.575 -12713206.753 10 0 60924 51300.00000 0 2398654.916 20231023.284 -15278107.576 10 0 60924 52200.00000 0 1514482.926 18394218.827 -17544743.307 10 0 60924 53100.00000 0 356168.781 16411237.684 -19468876.715 10 0 60924 54000.00000 0 -1073497.194 14348204.489 -21012996.418 10 0 60924 54900.00000 0 -2758903.677 12271269.785 -22147055.041 10 0 60924 55800.00000 0 -4672039.722 10243931.088 -22849055.775 10 0 60924 56700.00000 0 -6773449.592 8324486.848 -23105475.997 10 0 60924 57600.00000 0 -9013680.689 6563730.728 -22911520.235 10 0 60924 58500.00000 0 -11335163.120 5002982.747 -22271198.508 10 0 60924 59400.00000 0 -13674441.298 3672538.906 -21197229.731 10 0 60924 60300.00000 0 -15964663.273 2590602.583 -19710773.515 10 0 60924 61200.00000 0 -18138222.926 1762740.215 -17840997.078 10 0 60924 62100.00000 0 -20129444.173 1181881.232 -15624487.187 10 0 60924 63000.00000 0 -21877195.014 828859.191 -13104519.968 10 0 60924 63900.00000 0 -23327322.678 673468.217 -10330204.048 10 0 60924 64800.00000 0 -24434809.112 675987.415 -7355514.723 10 0 60924 65700.00000 0 -25165558.189 789106.551 -4238238.688 10 0 60924 66600.00000 0 -25497741.691 960169.922 -1038850.374 10 0 60924 67500.00000 0 -25422649.848 1133642.569 2180658.134 10 0 60924 68400.00000 0 -24945012.880 1253694.207 5357971.081 10 0 60924 69300.00000 0 -24082782.009 1266791.990 8431644.231 10 0 60924 70200.00000 0 -22866380.629 1124193.365 11342279.036 10 0 60924 71100.00000 0 -21337457.956 784234.881 14033654.217 10 0 60924 72000.00000 0 -19547197.644 214321.688 16453794.310 10 0 60924 72900.00000 0 -17554251.691 -607465.049 18555956.151 10 0 60924 73800.00000 0 -15422384.877 -1691209.688 20299515.961 10 0 60924 74700.00000 0 -13217926.407 -3034501.129 21650741.454 10 0 60924 75600.00000 0 -11007132.990 -4622297.584 22583435.517 10 0 60924 76500.00000 0 -8853570.906 -6427324.086 23079440.047 10 0 60924 77400.00000 0 -6815623.891 -8410988.121 23128990.772 10 0 60924 78300.00000 0 -4944228.566 -10524777.764 22730916.229 10 0 60924 79200.00000 0 -3280930.118 -12712087.007 21892676.408 10 0 60924 80100.00000 0 -1856338.254 -14910395.233 20630239.172 10 0 60924 81000.00000 0 -689047.424 -17053712.926 18967795.130 10 0 60924 81900.00000 0 214933.387 -19075194.160 16937314.425 10 0 60924 82800.00000 0 862216.667 -20909808.632 14577951.800 10 0 60924 83700.00000 0 1271535.621 -22496962.644 11935309.232 10 0 60924 84600.00000 0 1472726.438 -23782959.550 9060568.427 10 0 60924 85500.00000 0 1505235.281 -24723195.787 6009508.463 10 0 60925 0.00000 0 1416212.189 -25283998.886 2841426.918 10 0 60925 900.00000 0 1258272.056 -25444028.437 -382016.622 10 0 60925 1800.00000 0 1087017.967 -25195178.089 -3598007.534 10 0 60925 2700.00000 0 958432.658 -24542939.352 -6743814.787 10 0 60925 3600.00000 0 926250.548 -23506209.005 -9758031.375 10 0 60925 4500.00000 0 1039423.949 -22116547.132 -12581792.135 10 0 60925 5400.00000 0 1339793.514 -20416916.147 -15159942.838 10 0 60925 6300.00000 0 1860064.282 -18459953.821 -17442135.752 10 0 60925 7200.00000 0 2622175.596 -16305853.576 -19383828.399 10 0 60925 8100.00000 0 3636136.015 -14019942.290 -20947164.598 10 0 60925 9000.00000 0 4899374.118 -11670058.754 -22101719.605 10 0 60925 9900.00000 0 6396633.635 -9323844.325 -22825094.314 10 0 60925 10800.00000 0 8100417.759 -7046060.606 -23103347.024 10 0 60925 11700.00000 0 9971963.807 -4896047.355 -22931254.846 10 0 60925 12600.00000 0 11962706.652 -2925427.252 -22312400.604 10 0 60925 13500.00000 0 14016168.617 -1176153.029 -21259084.733 10 0 60925 14400.00000 0 16070195.552 321022.654 -19792065.322 10 0 60925 15300.00000 0 18059444.420 1547592.586 -17940132.830 10 0 60925 16200.00000 0 19918017.460 2497814.524 -15739529.282 10 0 60925 17100.00000 0 21582132.282 3178686.169 -13233224.611 10 0 60925 18000.00000 0 22992716.147 3609379.923 -10470065.523 10 0 60925 18900.00000 0 24097816.405 3820164.380 -7503814.490 10 0 60925 19800.00000 0 24854727.205 3850860.859 -4392098.323 10 0 60925 20700.00000 0 25231744.852 3748902.376 -1195287.326 10 0 60925 21600.00000 0 25209480.032 3567078.622 2024673.032 10 0 60925 22500.00000 0 24781673.768 3361063.103 5205455.433 10 0 60925 23400.00000 0 23955484.710 3186827.063 8285546.323 10 0 60925 24300.00000 0 22751237.209 3098048.942 11205421.568 10 0 60925 25200.00000 0 21201641.766 3143627.795 13908680.553 10 0 60925 26100.00000 0 19350520.886 3365404.327 16343118.218 10 0 60925 27000.00000 0 17251093.365 3796184.298 18461715.942 10 0 60925 27900.00000 0 14963887.706 4458146.451 20223533.822 10 0 60925 28800.00000 0 12554370.129 5361701.239 21594488.721 10 0 60925 29700.00000 0 10090383.984 6504848.245 22548004.467 10 0 60925 30600.00000 0 7639504.759 7873059.948 23065522.738 10 0 60925 31500.00000 0 5266418.298 9439698.145 23136865.322 10 0 60925 32400.00000 0 3030428.939 11166947.768 22760440.797 10 0 60925 33300.00000 0 983199.210 13007231.730 21943291.065 10 0 60925 34200.00000 0 -833186.308 14905050.651 20700975.669 10 0 60925 35100.00000 0 -2387753.163 16799173.596 19057294.489 10 0 60925 36000.00000 0 -3661701.614 18625091.031 17043852.111 10 0 60925 36900.00000 0 -4648958.713 20317629.578 14699470.078 10 0 60925 37800.00000 0 -5356193.990 21813620.612 12069456.206 10 0 60925 38700.00000 0 -5802296.971 23054511.437 9204743.050 10 0 60925 39600.00000 0 -6017337.345 23988809.126 6160910.713 10 0 60925 40500.00000 0 -6041050.650 24574253.167 2997111.894 10 0 60925 41400.00000 0 -5920912.869 24779623.639 -225080.309 10 0 60925 42300.00000 0 -5709885.342 24586106.444 -3442879.068 10 0 60925 43200.00000 0 -5463926.205 23988155.549 -6593520.531 10 0 60925 44100.00000 0 -5239375.103 22993813.516 -9615504.981 10 0 60925 45000.00000 0 -5090324.029 21624474.780 -12449816.361 10 0 60925 45900.00000 0 -5066088.053 19914100.220 -15041094.286 10 0 60925 46800.00000 0 -5208885.700 17907915.380 -17338733.716 10 0 60925 47700.00000 0 -5551829.737 15660647.097 -19297888.908 10 0 60925 48600.00000 0 -6117315.613 13234373.255 -20880360.610 10 0 60925 49500.00000 0 -6915877.468 10696077.020 -22055348.179 10 0 60925 50400.00000 0 -7945561.221 8115009.446 -22800051.422 10 0 60925 51300.00000 0 -9191841.715 5559972.191 -23100110.464 10 0 60925 52200.00000 0 -10628087.388 3096635.042 -22949875.572 10 0 60925 53100.00000 0 -12216552.305 785000.952 -22352502.567 10 0 60925 54000.00000 0 -13909852.903 -1322875.637 -21319873.191 10 0 60925 54900.00000 0 -15652866.266 -3184822.792 -19872343.358 10 0 60925 55800.00000 0 -17384968.991 -4770058.189 -18038325.721 10 0 60925 56700.00000 0 -19042521.700 -6060208.689 -15853716.136 10 0 60925 57600.00000 0 -20561494.184 -7049802.636 -13361176.620 10 0 60925 58500.00000 0 -21880120.745 -7746217.447 -10609290.005 10 0 60925 59400.00000 0 -22941474.464 -8169088.075 -7651603.818 10 0 60925 60300.00000 0 -23695853.065 -8349204.365 -4545582.755 10 0 60925 61200.00000 0 -24102877.317 -8326946.487 -1351490.677 10 0 60925 62100.00000 0 -24133215.362 -8150326.570 1868775.955 10 0 60925 63000.00000 0 -23769862.238 -7872720.568 5052880.732 10 0 60925 63900.00000 0 -23008922.541 -7550386.784 8139243.320 10 0 60925 64800.00000 0 -21859864.867 -7239875.708 11068216.587 10 0 60925 65700.00000 0 -20345238.402 -6995439.783 13783223.180 10 0 60925 66600.00000 0 -18499864.079 -6866551.228 16231830.994 10 0 60925 67500.00000 0 -16369533.977 -6895631.111 18366748.373 10 0 60925 68400.00000 0 -14009272.465 -7116083.969 20146721.517 10 0 60925 69300.00000 0 -11481230.140 -7550719.503 21537318.380 10 0 60925 70200.00000 0 -8852296.259 -8210627.071 22511585.355 10 0 60925 71100.00000 0 -6191526.569 -9094550.244 23050565.163 10 0 60925 72000.00000 0 -3567490.874 -10188788.434 23143666.544 10 0 60925 72900.00000 0 -1045647.972 -11467631.249 22788878.649 10 0 60925 73800.00000 0 1314145.289 -12894309.560 21992825.473 10 0 60925 74700.00000 0 3459889.144 -14422426.120 20770658.103 10 0 60925 75600.00000 0 5349367.688 -15997808.691 19145785.229 10 0 60925 76500.00000 0 6951667.669 -17560710.901 17149445.097 10 0 60925 77400.00000 0 8248225.880 -19048271.016 14820124.955 10 0 60925 78300.00000 0 9233360.783 -20397127.342 12202837.013 10 0 60925 79200.00000 0 9914265.140 -21546081.464 9348262.904 10 0 60925 80100.00000 0 10310458.812 -22438697.506 6311781.661 10 0 60925 81000.00000 0 10452723.660 -23025727.188 3152399.015 10 0 60925 81900.00000 0 10381564.701 -23267256.984 -68401.591 10 0 60925 82800.00000 0 10145262.178 -23134484.568 -3287863.618 10 0 60925 83700.00000 0 9797597.280 -22611047.076 -6443193.279 10 0 60925 84600.00000 0 9395348.738 -21693842.460 -9472801.103 10 0 60925 85500.00000 0 8995667.965 -20393306.842 -12317523.099 99